Theta_e
326 326 325 324 324 323 322 321 321 320 321 321 320 319 318 318 319 320 320 321 321 321 322 322 324 324 314 304 305 315 321 319 312 310 307 305 304 303 300 302 301 299 300 300 302 302 301
324 325 325 325 325 324 323 322 321 320 320 320 319 319 318 318 319 319 320 320 320 321 321 322 324 323 308 298 313 312 311 310 310 309 306 306 304 305 302 301 300 301 301 301 302 302 302
323 324 323 325 325 324 323 323 323 322 321 320 319 318 318 318 318 319 319 320 320 320 320 322 323 315 303 301 315 311 310 309 309 309 306 307 306 305 304 301 302 300 299 300 301 301 301
318 320 321 320 320 320 324 323 323 323 322 321 320 318 318 318 318 318 318 319 320 320 320 322 324 310 299 310 316 310 310 308 309 309 309 308 309 305 303 303 301 299 299 296 299 299 300
315 315 317 319 318 318 318 321 324 323 322 321 320 319 318 318 318 318 318 319 319 319 321 321 311 305 298 313 310 313 309 307 307 307 307 306 306 302 302 300 298 297 294 294 296 299 299
314 314 314 315 316 317 317 317 318 318 319 320 320 319 319 318 318 318 319 320 319 319 316 311 308 299 301 301 308 308 308 307 305 305 304 304 303 300 300 298 291 293 293 293 295 297 297
310 311 313 312 312 314 315 315 316 315 316 316 317 320 320 319 318 319 319 309 307 306 305 299 297 297 300 306 309 307 307 305 304 303 299 298 298 295 298 299 296 295 294 293 296 296 296
307 308 310 311 311 311 312 314 315 315 314 314 314 316 320 320 319 318 316 312 304 307 304 306 303 301 304 307 301 305 307 303 300 297 297 297 294 299 297 296 295 295 294 294 296 295 295
305 305 307 307 309 309 310 311 312 313 314 313 312 313 317 320 318 316 314 309 314 311 302 302 304 303 303 305 301 302 305 301 298 295 296 294 296 297 296 294 293 294 293 294 293 294 295
307 304 304 306 306 307 307 308 309 311 311 312 312 312 317 318 314 314 311 315 316 310 299 299 297 301 302 303 299 303 305 303 297 296 295 296 297 295 294 293 295 291 296 294 293 292 289
305 304 305 307 306 305 304 305 307 309 310 310 311 311 312 315 313 310 312 316 316 309 287 297 296 305 301 300 299 299 303 301 296 295 296 294 293 293 293 294 296 293 295 294 293 292 291
302 303 303 304 306 307 306 303 304 306 307 308 308 310 311 314 316 315 316 316 312 293 285 294 296 296 296 297 296 298 299 302 300 296 295 294 296 296 296 294 295 295 294 293 293 292 286
301 301 301 302 304 305 306 308 304 304 305 305 307 309 308 310 310 316 315 311 291 285 296 293 293 295 294 293 294 296 295 294 293 289 289 292 293 295 296 293 294 294 293 286 285 284 284
301 301 301 301 302 302 304 306 307 305 303 304 305 307 306 307 311 314 311 297 285 292 294 295 294 293 291 293 293 293 293 292 295 292 289 288 285 293 296 295 293 292 293 287 282 282 286
303 301 301 301 301 301 302 305 306 307 306 304 305 304 303 307 309 312 303 286 288 292 295 294 294 291 291 292 292 291 292 292 295 294 289 287 287 292 293 295 297 291 288 295 288 281 283
304 303 301 301 301 300 301 303 305 306 307 304 300 299 298 307 311 309 295 289 292 297 296 296 291 294 291 292 290 290 290 294 293 296 298 292 286 291 292 295 294 293 296 287 288 282 280
303 303 302 301 302 301 301 302 303 305 306 304 298 292 298 305 310 300 288 290 294 298 298 295 294 293 293 291 292 289 290 294 294 293 297 295 291 288 291 290 290 290 290 290 290 288 283
303 303 303 303 301 301 301 302 302 304 306 300 295 285 299 306 293 295 289 293 295 296 299 297 297 296 293 293 292 292 292 294 296 296 291 295 291 287 289 293 294 294 292 292 286 284 286
303 304 304 304 302 301 301 302 301 303 304 298 290 290 298 302 285 287 290 291 293 293 295 295 294 296 296 293 289 293 295 297 295 296 293 295 290 285 287 289 290 289 291 292 292 288 287
303 303 304 304 303 302 302 302 301 302 304 301 290 284 290 292 294 288 286 286 287 293 293 294 294 296 294 291 294 290 291 295 296 295 296 297 291 288 286 290 291 287 289 291 291 286 286
303 303 303 304 303 303 303 301 302 302 304 298 290 286 288 283 286 287 288 286 285 285 292 293 290 290 291 288 290 290 292 291 293 296 296 295 286 290 292 293 291 290 290 290 288 290 287
302 303 303 303 303 303 302 302 302 302 303 295 286 286 287 286 287 286 286 285 285 286 287 286 286 290 290 287 288 287 289 290 290 292 290 294 285 289 286 292 291 289 291 290 290 291 292
302 302 302 303 303 303 303 303 303 303 302 294 293 292 289 286 286 283 284 285 285 288 289 291 290 288 287 289 292 293 292 291 290 288 289 290 287 285 282 289 288 284 288 291 292 293 293
300 302 302 302 302 303 303 303 302 303 302 297 293 291 285 281 284 284 284 284 284 285 285 287 290 287 290 295 294 293 292 291 290 290 291 286 285 285 283 285 278 290 296 296 293 295 296
299 300 301 301 302 303 303 303 303 303 303 297 296 290 286 282 284 284 284 284 285 287 286 286 288 291 293 290 285 281 281 281 283 288 289 290 286 282 280 281 285 289 293 292 291 291 297
297 298 299 301 302 302 303 302 303 303 302 297 296 295 289 283 281 286 284 285 282 282 282 282 286 289 291 286 282 274 274 278 279 284 287 289 290 284 282 278 276 287 293 294 295 286 297
296 297 298 298 301 302 301 302 302 302 302 298 295 297 291 283 285 286 282 282 286 283 282 280 283 284 288 282 277 276 275 281 277 277 280 282 282 280 280 279 283 290 293 294 283 287 290
294 295 296 298 297 301 301 301 302 302 302 297 293 297 290 285 286 287 287 284 285 285 281 281 283 283 282 279 279 278 277 279 278 281 280 280 280 280 282 280 278 290 290 289 289 291 291
293 294 295 296 295 298 301 301 302 302 302 300 288 296 295 287 285 289 289 290 290 289 286 282 284 280 285 282 281 280 277 281 279 275 284 279 284 282 284 284 292 293 293 295 293 290 292
Wind_Speed
13 9 9 9 10 10 9 10 8 5 4 4 3 3 1 2 3 5 5 6 8 9 11 13 13 14 1 2 2 2 3 2 1 2 3 4 3 4 4 4 4 2 4 3 2 3 3
12 8 5 7 8 9 10 11 9 8 6 4 4 3 3 2 3 4 6 6 8 10 11 13 13 14 1 4 1 2 3 0 3 2 2 2 3 2 6 3 2 2 2 1 2 3 2
18 11 15 17 5 8 9 8 9 8 7 7 6 6 5 5 4 5 6 7 8 10 11 12 12 5 0 2 1 1 0 1 1 1 3 2 4 1 4 6 2 2 2 3 5 2 2
19 20 17 17 17 20 3 7 8 7 7 7 7 7 6 5 4 6 7 7 8 9 10 10 8 2 2 0 1 1 1 3 4 5 4 2 5 7 3 6 3 1 1 4 3 3 2
16 15 16 18 18 17 16 19 10 7 6 7 7 7 7 5 4 6 8 8 8 8 8 6 2 2 1 1 2 2 2 4 4 3 6 4 4 4 3 4 3 1 4 6 3 4 1
16 15 15 16 18 16 15 16 16 14 14 4 6 6 7 6 4 6 10 5 2 3 1 1 0 2 2 2 1 2 3 2 4 4 3 4 4 3 3 7 7 6 6 4 6 3 4
14 15 14 12 12 13 14 14 14 14 13 12 12 4 8 7 5 5 4 2 2 2 1 2 1 1 2 1 1 2 1 3 2 3 6 2 6 9 14 9 1 3 2 5 3 1 4
10 12 12 13 11 12 12 14 15 12 13 14 14 13 6 7 5 4 3 3 2 2 4 1 3 3 2 3 3 2 3 4 2 6 6 5 10 12 6 7 5 5 8 12 7 2 5
6 6 8 9 10 11 10 12 11 11 14 15 13 14 12 9 6 2 1 3 1 2 3 4 3 4 3 7 6 9 11 6 4 5 11 12 4 6 8 7 9 9 12 9 9 1 7
10 4 5 7 6 8 10 9 10 8 11 11 11 11 6 10 4 2 2 1 2 2 5 5 5 3 3 5 5 2 6 4 4 12 7 8 3 5 8 9 12 14 12 8 6 5 7
6 7 8 9 6 2 3 5 6 6 7 10 12 12 12 7 3 2 2 3 2 2 6 5 3 2 1 6 4 1 1 0 11 9 8 6 10 12 11 8 13 2 5 6 2 5 5
6 8 10 10 9 9 4 3 5 5 5 5 7 10 13 2 0 1 4 6 2 2 9 3 3 4 5 1 2 2 3 3 2 6 2 1 2 5 4 3 4 12 7 5 3 1 10
5 6 8 10 9 8 8 8 4 3 4 5 6 8 5 2 3 1 1 2 2 5 1 4 3 3 2 6 4 3 8 11 10 8 15 5 8 3 3 7 4 4 9 4 5 6 12
9 10 9 9 9 7 9 10 7 5 2 5 7 7 3 2 2 3 2 2 8 6 9 1 3 4 4 7 2 4 6 9 11 2 3 12 11 13 10 15 9 12 11 8 8 6 8
13 11 9 10 9 8 10 9 7 7 3 3 5 1 2 2 4 2 5 6 9 9 4 7 4 3 4 3 2 5 8 9 10 16 13 8 8 1 3 4 13 8 12 9 7 1 4
16 14 13 12 11 8 11 8 7 8 5 4 1 0 3 1 5 3 5 11 12 3 5 3 12 9 8 8 8 9 10 5 7 16 14 3 8 1 3 3 1 10 7 6 5 7 11
17 18 16 13 11 10 10 7 8 7 7 8 1 1 1 3 4 3 10 7 7 5 4 7 8 7 6 6 10 6 4 3 5 4 15 8 4 3 4 11 14 7 12 5 3 6 7
19 22 20 17 14 12 13 11 9 9 5 5 2 2 1 4 6 5 12 10 11 11 8 10 5 7 8 5 8 7 11 7 5 9 11 8 1 8 13 0 5 10 19 22 9 8 6
23 21 21 20 19 15 14 13 12 11 10 4 4 2 1 2 9 10 7 14 10 6 10 7 12 11 6 12 7 12 11 4 7 8 10 9 5 4 6 4 2 9 12 12 21 1 13
25 22 22 23 21 19 18 15 14 13 12 3 3 4 2 2 3 10 12 14 14 7 12 6 5 6 7 7 7 3 6 3 3 4 8 3 7 11 16 11 3 9 17 19 18 9 20
23 24 22 24 23 22 20 18 17 16 15 5 4 5 4 8 11 11 11 7 17 12 9 11 11 17 12 6 10 9 11 2 5 12 5 2 6 17 25 23 11 8 11 22 23 28 23
27 25 26 25 25 23 24 22 21 19 17 7 5 5 2 1 6 15 13 14 17 11 10 14 15 9 5 18 20 19 17 13 8 5 4 6 4 4 20 24 19 22 16 14 25 28 24
27 27 28 27 26 25 26 25 23 22 22 6 3 1 3 7 7 11 17 21 11 12 7 11 9 4 10 13 3 5 4 8 6 3 2 3 6 4 14 17 14 18 25 25 23 23 24
27 28 29 28 28 28 27 27 26 25 24 3 3 2 3 5 11 14 9 14 15 16 17 9 11 14 2 2 3 8 10 12 14 16 12 7 2 1 7 2 15 8 17 24 27 29 26
28 28 29 30 29 28 28 29 28 28 25 7 5 4 4 8 10 13 16 13 5 6 7 7 5 2 1 4 3 7 5 5 11 18 20 20 12 8 9 12 15 16 9 7 10 22 23
31 29 30 30 28 29 30 29 29 30 27 9 5 7 3 3 9 9 11 13 11 5 3 4 2 2 2 4 5 8 8 3 7 4 6 20 20 16 16 19 24 18 16 4 3 11 21
33 30 29 30 32 29 29 30 29 30 30 12 5 12 5 4 3 8 10 11 6 5 3 3 4 3 3 6 7 9 11 4 10 9 4 4 7 18 18 15 11 13 25 4 8 10 9
30 30 29 30 24 30 30 31 30 30 30 17 8 13 9 4 5 7 9 6 4 6 7 4 3 2 4 5 6 7 7 9 12 18 10 12 9 7 7 10 9 3 4 10 2 6 11
30 32 31 31 24 30 32 31 31 31 31 28 3 11 8 3 3 4 3 2 6 6 5 3 2 4 6 5 2 2 4 4 10 14 17 17 12 10 10 10 3 4 5 7 5 5 17
Wind_Direction
195 190 202 194 194 186 190 194 189 193 194 189 189 185 211 336 343 350 352 350 341 343 337 336 333 331 267 144 152 358 322 291 186 131 120 141 172 147 151 144 132 205 158 175 128 170 238
65 106 59 205 199 200 190 193 200 200 192 203 212 234 248 259 310 326 331 337 339 335 336 332 330 324 185 192 67 327 299 225 66 96 112 103 158 125 106 116 199 75 181 171 185 184 228
66 82 68 53 196 196 198 196 196 201 197 207 222 239 249 262 283 308 319 324 330 327 325 323 334 336 181 97 283 293 58 85 16 86 117 68 126 33 143 126 93 90 239 274 217 166 229
43 47 47 53 56 40 16 220 200 188 195 207 219 228 243 250 274 291 299 306 311 316 317 321 323 297 120 258 300 45 121 79 72 43 78 66 98 96 13 119 87 165 224 234 126 180 133
46 57 49 49 52 46 35 32 216 192 198 214 211 225 230 241 267 290 291 291 295 298 303 319 293 322 137 46 174 327 344 135 97 71 57 72 58 69 141 168 181 203 239 224 271 185 205
34 42 47 56 47 47 49 41 34 61 65 28 227 229 240 234 249 298 295 280 284 285 275 288 105 256 147 163 19 351 4 76 108 119 104 54 70 162 148 197 233 203 216 220 250 130 221
26 34 38 43 52 58 46 48 54 39 50 43 40 286 234 237 254 307 321 150 243 178 160 277 323 28 96 88 189 71 342 102 89 91 177 45 205 213 226 222 241 120 210 249 230 137 262
13 18 25 35 43 49 48 41 43 34 46 44 29 6 305 205 212 276 295 60 68 33 302 196 242 260 240 203 124 203 168 168 175 178 138 164 226 232 106 167 188 214 253 256 279 193 234
333 13 7 16 35 39 47 33 39 36 34 38 27 5 308 173 179 275 79 92 335 277 269 277 222 222 192 176 212 191 175 148 146 158 199 216 181 159 176 176 200 224 235 247 266 328 234
354 350 341 345 2 26 24 21 24 35 36 24 31 353 3 161 184 210 100 55 88 317 262 230 220 239 146 165 235 349 187 148 179 200 180 245 180 170 182 211 202 241 212 235 255 283 272
305 340 8 13 345 328 42 1 357 25 63 19 7 1 345 313 94 16 9 44 4 257 255 104 162 74 112 199 122 41 9 291 181 169 175 199 180 195 214 219 190 236 131 179 176 242 305
301 302 313 330 351 5 312 256 311 332 77 45 3 355 338 356 125 118 169 156 153 111 220 190 129 153 153 132 63 98 147 57 65 136 250 304 10 193 199 95 182 139 96 77 85 248 262
290 292 301 302 312 337 360 338 257 297 7 6 356 352 351 297 147 231 161 149 108 211 20 169 166 172 190 171 161 170 172 184 181 183 221 178 213 173 175 116 91 213 170 203 221 198 250
276 275 272 276 285 307 325 325 290 270 340 353 338 344 332 277 360 359 113 121 203 207 206 108 118 110 198 159 195 158 159 207 228 193 141 209 230 184 181 215 177 197 201 210 228 212 262
269 267 264 260 267 285 298 306 329 286 219 5 350 7 296 220 196 215 170 213 217 225 172 180 142 182 195 193 230 186 217 236 213 199 208 191 242 186 220 174 181 175 216 253 269 106 292
265 269 261 261 251 258 274 287 319 302 204 121 111 347 249 43 171 167 193 227 222 205 134 180 213 205 231 200 195 199 187 217 224 202 216 217 257 172 145 160 188 215 149 187 213 226 234
262 259 256 247 243 245 255 253 273 298 203 137 78 265 251 198 162 202 219 220 250 205 218 225 218 241 223 191 205 189 245 246 213 182 204 219 246 133 166 205 179 182 214 219 242 220 244
260 258 251 253 244 236 242 236 250 265 197 108 135 219 6 192 172 199 218 208 230 217 212 239 254 249 226 212 213 225 229 230 158 145 168 206 263 252 232 100 255 240 226 209 213 207 248
248 255 253 240 234 234 235 231 235 239 205 140 173 263 71 264 199 206 211 228 239 209 207 196 223 221 224 244 256 234 244 213 186 180 174 175 176 239 256 207 203 229 213 223 228 53 222
255 249 246 237 236 229 233 223 231 233 211 180 144 194 224 250 229 227 207 222 220 210 233 222 251 218 210 224 242 286 320 353 318 247 8 352 181 223 238 246 115 208 224 213 205 221 235
250 253 244 237 233 232 222 223 221 224 217 148 185 216 197 195 216 210 209 221 216 217 214 207 238 231 224 242 213 222 225 247 310 314 358 297 236 235 248 257 255 248 220 214 215 226 223
255 248 246 237 235 223 222 216 210 216 214 207 183 184 181 212 207 198 210 222 221 207 210 218 240 210 196 240 246 268 275 255 227 214 219 205 244 273 253 256 250 255 257 238 220 230 239
260 252 246 236 235 223 217 219 209 212 203 206 140 173 227 186 178 185 214 224 214 207 225 236 223 175 229 247 273 272 275 280 282 313 278 225 181 207 261 259 255 242 237 242 245 239 236
268 263 249 242 235 227 220 218 210 216 203 196 144 130 173 189 204 214 214 211 223 217 232 226 237 241 164 65 267 272 262 252 245 244 216 226 236 234 249 255 252 249 251 236 240 245 242
270 264 262 244 236 230 224 218 211 211 206 192 153 159 192 241 216 220 223 227 222 199 212 216 215 113 62 346 307 283 244 270 230 233 223 207 228 252 255 250 282 285 272 206 216 250 245
266 264 255 258 237 230 228 219 215 208 210 191 176 155 172 198 212 200 201 206 221 209 240 232 292 72 158 181 189 233 244 268 260 270 227 224 224 225 240 250 259 253 248 211 196 257 255
262 261 263 249 248 229 225 219 212 209 208 190 178 173 170 234 218 190 204 204 173 175 197 137 172 133 160 189 207 225 236 219 247 240 214 174 216 226 237 249 253 258 273 144 226 290 339
259 259 252 263 274 237 223 221 212 208 206 196 184 181 180 197 236 207 175 161 134 184 199 147 147 163 169 211 212 217 240 232 231 243 260 260 254 245 235 233 247 20 136 226 24 339 338
263 258 251 251 233 268 219 214 211 206 206 195 163 176 164 179 174 224 215 208 186 168 154 197 206 159 210 203 216 254 264 247 226 246 236 241 232 250 245 259 164 224 243 251 192 272 290